map of YEI home
Great Circle Mapper logo
YEI - Airport
Location
City:  Bursa, Turkey
Name:Yenisehir
ICAO / IATA:LTBR / YEI

Details
Type:Airport (Aerodrome, Airfield)
Use:Public/Civil, Military
Latitude:4015'19"N (40.255208)
Longitude:2933'45"E (29.562569)
Datum:WGS 1984
Elevation:764 ft (233 m)
Variation:5.15E (WMM2015 magnetic declination)
0.10 annual change
Runways:2
Longest:9818 × 148 ft (2993 × 45 m), paved

Time
Time Zone:UTC+2 (DST+3)
Local Time:

Weather
METAR:LTBR 280120Z 00000KT CAVOK 08/07 Q1014 NOSIG
TAF:LTBR 271040Z 2712/2812 36012KT 9999 FEW035
BECMG 2713/2716 VRB02KT CAVOK PROB30 2802/2806 4000 BR
BECMG 2807/2810 FEW035 BKN200

Related Locations
Nearby:
Farthest:NTAV: 11291 mi / 18170 km
Raivavae, Tubuai Islands, Austral Islands, PF

Find:

   beyond  
but within

Other Information
Maps:
NOTAMs:
Links:
Sources:

  
flag of Turkey   

Sectional Chart

Flight Planning
at skyvector.com

Satellite Image

Google Maps Satellite View

 

Copyright © 2004-2015 Karl L. Swartz. All rights reserved.
The Great Circle Mapper name and logo are trademarks of the Great Circle Mapper.
All other trademarks mentioned herein belong to their respective owners.
Please see credits for attibutions and further copyright information.

  Follow gcmap on Facebook Follow gcmap on Twitter Follow gcmap on Google+

hCard Microformat

Geo Microformat